DW6276 Weather Reports


Display with metric or nautical units.
time (UTC)temp
F
wind
direction
speed
MPH
gust
MPH
rain 1hr
in
rain 24hr
in
rain mn
in
humidity
%
barometer
mb
20260906081517 68 0.0 1.0 0.00 0.00 0.00 91 1016.8
20260906080517 69 0.0 2.0 0.00 0.00 0.00 91 1016.8
20260906075516 69 0 1.0 2.0 0.00 0.00 0.00 91 1016.8
20260906074517 69 113 2.0 4.0 0.00 0.00 0.00 91 1016.7
20260906073516 70 135 3.0 9.0 0.00 0.00 0.00 91 1016.7
20260906072537 70 135 3.0 5.0 0.00 0.00 0.00 91 1016.8
20260906071517 70 135 3.0 5.0 0.00 0.00 0.00 91 1016.9
20260906070517 70 135 2.0 5.0 0.00 0.00 0.00 91 1017.0
20260906065516 69 0 2.0 4.0 0.00 0.00 0.00 91 1017.2
20260906064516 70 0 1.0 3.0 0.00 0.00 0.00 91 1017.2
20260906063516 70 0 2.0 4.0 0.00 0.00 0.00 91 1017.3
20260906062556 70 0 2.0 4.0 0.00 0.00 0.00 91 1017.3
20260906061516 70 0 2.0 3.0 0.00 0.00 0.00 91 1017.1
20260906060516 70 0 3.0 4.0 0.00 0.00 0.00 91 1017.1
20260906055516 70 0 2.0 5.0 0.00 0.00 0.00 91 1017.2
20260906054516 71 135 3.0 4.0 0.00 0.00 0.00 91 1017.3
20260906053516 71 135 3.0 6.0 0.00 0.00 0.00 91 1017.4
20260906052516 71 113 2.0 4.0 0.00 0.00 0.00 90 1017.4
20260906051516 71 113 4.0 8.0 0.00 0.00 0.00 91 1017.4
20260906050516 72 113 3.0 5.0 0.00 0.00 0.00 90 1017.3
20260906045517 72 113 3.0 5.0 0.00 0.00 0.00 91 1017.3
20260906044517 72 113 3.0 7.0 0.00 0.00 0.00 91 1017.3
20260906043517 72 113 4.0 7.0 0.00 0.00 0.00 91 1017.2
20260906042537 72 113 3.0 8.0 0.00 0.00 0.00 91 1017.3
20260906041517 72 113 3.0 6.0 0.00 0.00 0.00 91 1017.3
20260906040517 72 113 4.0 7.0 0.00 0.00 0.00 91 1017.3
20260906035517 72 113 3.0 6.0 0.00 0.00 0.00 91 1017.3
20260906034537 72 90 3.0 5.0 0.00 0.00 0.00 91 1017.3
20260906033517 72 90 3.0 5.0 0.00 0.00 0.00 91 1017.3
20260906032517 72 113 1.0 2.0 0.00 0.00 0.00 91 1017.2
20260906031517 72 113 1.0 2.0 0.00 0.00 0.00 91 1017.3
20260906030517 72 113 1.0 2.0 0.00 0.00 0.00 91 1017.4
20260906025517 72 113 1.0 2.0 0.00 0.00 0.00 90 1017.4
20260906024517 73 0 1.0 1.0 0.00 0.00 0.00 90 1017.4
20260906023537 73 0.0 0.0 0.00 0.00 0.00 90 1017.4
20260906022557 73 0.0 2.0 0.00 0.00 0.00 90 1017.3
20260906021517 73 0.0 0.0 0.00 0.00 0.00 90 1017.1
20260906020517 73 0.0 1.0 0.00 0.00 0.00 90 1016.8
20260906015517 73 90 1.0 3.0 0.00 0.00 0.00 89 1016.6
20260906014516 74 0.0 2.0 0.00 0.00 0.00 89 1016.4
20260906013536 74 0.0 2.0 0.00 0.00 0.00 89 1016.1
20260906012536 74 0.0 2.0 0.00 0.00 0.00 88 1016.0
20260906011516 75 0.0 1.0 0.00 0.00 0.00 88 1016.0
20260906010516 75 0.0 2.0 0.00 0.00 0.00 87 1015.7
20260906005516 76 180 1.0 2.0 0.00 0.00 0.00 86 1015.7
20260906004516 76 180 2.0 3.0 0.00 0.00 0.00 85 1015.7
20260906003516 77 158 1.0 2.0 0.00 0.00 0.00 84 1015.7
20260906002516 78 135 2.0 3.0 0.00 0.00 0.00 84 1015.6
20260906001517 78 135 2.0 4.0 0.00 0.00 0.00 83 1015.5
20260906000516 78 135 1.0 4.0 0.00 0.00 0.00 83 1015.6
20260905235516 78 135 2.0 4.0 0.00 0.00 0.00 82 1015.6
20260905234517 79 135 3.0 7.0 0.00 0.00 0.00 81 1015.6
20260905233516 79 135 4.0 7.0 0.00 0.00 0.00 80 1015.6
20260905232516 80 158 4.0 6.0 0.00 0.00 0.00 80 1015.5
20260905231516 81 135 5.0 9.0 0.00 0.00 0.00 79 1015.4
20260905230516 81 135 4.0 7.0 0.00 0.00 0.00 80 1015.3
20260905225556 81 135 4.0 7.0 0.00 0.00 0.00 80 1015.2
20260905224516 81 158 4.0 6.0 0.00 0.00 0.00 80 1015.2
20260905223516 80 158 3.0 6.0 0.00 0.00 0.00 80 1014.8
20260905222516 81 113 4.0 8.0 0.00 0.00 0.00 79 1014.6
20260905221516 81 90 6.0 11.0 0.00 0.00 0.00 77 1014.5
20260905220516 83 113 5.0 8.0 0.00 0.00 0.00 76 1014.6
20260905215536 83 90 6.0 9.0 0.00 0.00 0.00 76 1014.6
20260905214536 83 90 5.0 9.0 0.00 0.00 0.00 78 1014.9
20260905213516 83 113 7.0 13.0 0.00 0.00 0.00 76 1014.9
20260905212536 83 113 8.0 12.0 0.00 0.00 0.00 76 1015.0
20260905211516 82 90 8.0 13.0 0.00 0.00 0.00 77 1015.0
20260905210536 81 90 8.0 13.0 0.00 0.00 0.00 79 1014.9
20260905205516 81 113 8.0 14.0 0.00 0.00 0.00 81 1015.0
20260905204536 80 113 7.0 12.0 0.00 0.00 0.00 81 1015.2
20260905203516 80 90 7.0 11.0 0.00 0.00 0.00 82 1015.3
20260905202516 81 90 7.0 12.0 0.00 0.00 0.00 81 1015.3
20260905201516 81 90 8.0 12.0 0.00 0.00 0.00 81 1015.2
20260905200516 80 90 7.0 10.0 0.00 0.00 0.00 83 1015.3
20260905195516 79 90 7.0 11.0 0.00 0.00 0.00 84 1015.6
20260905194556 78 68 7.0 9.0 0.00 0.00 0.00 85 1015.5
20260905193516 78 90 6.0 9.0 0.00 0.00 0.00 84 1015.5
20260905192516 79 90 6.0 9.0 0.00 0.00 0.00 84 1015.5
20260905191536 78 90 7.0 10.0 0.00 0.00 0.00 84 1015.6
20260905190516 78 90 6.0 11.0 0.00 0.00 0.00 85 1015.8
20260905185536 78 113 5.0 8.0 0.00 0.00 0.00 86 1016.2
20260905184516 78 113 5.0 11.0 0.00 0.00 0.00 85 1016.2
20260905183516 77 90 7.0 10.0 0.00 0.00 0.00 85 1016.3
20260905182536 77 90 7.0 10.0 0.00 0.00 0.00 85 1016.2
20260905181516 77 90 7.0 11.0 0.00 0.00 0.00 86 1016.5
20260905180516 76 113 7.0 10.0 0.00 0.00 0.00 85 1016.6
20260905175536 76 113 5.0 8.0 0.00 0.00 0.00 87 1016.8
20260905174516 75 113 6.0 11.0 0.00 0.00 0.00 87 1016.8
20260905173515 75 90 6.0 8.0 0.00 0.00 0.00 87 1017.1
20260905172515 74 113 4.0 7.0 0.00 0.00 0.00 88 1017.4
20260905171556 73 90 4.0 7.0 0.00 0.00 0.00 90 1017.5
20260905170515 73 113 5.0 8.0 0.00 0.00 0.00 90 1017.6
20260905165515 72 135 4.0 7.0 0.00 0.00 0.00 90 1017.8
20260905164516 72 158 3.0 5.0 0.00 0.00 0.00 89 1018.1
20260905163535 72 0 2.0 4.0 0.00 0.00 0.00 90 1018.3
20260905162516 72 0 2.0 4.0 0.00 0.00 0.00 90 1018.3
20260905161516 72 0 3.0 5.0 0.00 0.00 0.00 90 1018.2
20260905160516 72 135 3.0 6.0 0.00 0.00 0.00 90 1017.9
20260905155516 72 113 4.0 8.0 0.00 0.00 0.00 91 1017.7
20260905154535 71 113 5.0 10.0 0.00 0.00 0.00 91 1017.3
20260905153515 71 0 4.0 7.0 0.00 0.00 0.00 91 1017.4
20260905152515 70 135 4.0 7.0 0.00 0.00 0.00 92 1017.4
20260905151515 70 90 3.0 6.0 0.00 0.00 0.00 92 1017.5
20260905150515 70 113 3.0 5.0 0.00 0.00 0.00 92 1017.5
20260905145515 70 68 2.0 4.0 0.00 0.00 0.00 92 1017.5
20260905144515 69 0 3.0 5.0 0.00 0.00 0.00 93 1017.3
20260905143515 69 113 3.0 5.0 0.00 0.00 0.00 93 1017.2
20260905142515 69 0 3.0 5.0 0.00 0.00 0.00 93 1017.0
20260905141515 68 0 4.0 7.0 0.00 0.00 0.00 94 1016.8
20260905140515 68 0 4.0 7.0 0.00 0.00 0.00 94 1016.6
20260905135515 68 0 4.0 7.0 0.00 0.00 0.00 94 1016.7
20260905134535 68 68 4.0 7.0 0.00 0.00 0.00 94 1016.8
20260905133515 67 68 5.0 7.0 0.00 0.00 0.00 94 1016.6
20260905132515 67 90 5.0 9.0 0.00 0.00 0.00 94 1016.6
20260905131515 67 113 5.0 8.0 0.00 0.00 0.00 94 1016.7
20260905130537 67 0 3.0 6.0 0.00 0.00 0.00 94 1016.7
20260905125537 67 68 4.0 7.0 0.00 0.00 0.00 94 1016.6
20260905124537 67 68 3.0 6.0 0.00 0.00 0.00 94 1016.2
20260905123517 67 90 4.0 7.0 0.00 0.00 0.00 94 1016.2
20260905122517 67 90 2.0 5.0 0.00 0.00 0.00 94 1015.9
20260905121517 67 68 1.0 3.0 0.00 0.00 0.00 94 1015.7
20260905120517 67 90 3.0 6.0 0.00 0.00 0.00 94 1015.8
20260905115517 67 68 4.0 8.0 0.00 0.00 0.00 93 1015.7
20260905114517 67 45 2.0 4.0 0.00 0.00 0.00 93 1015.7
20260905113537 67 68 3.0 6.0 0.00 0.00 0.00 93 1015.6
20260905112517 67 90 3.0 7.0 0.00 0.00 0.00 93 1015.5
20260905111517 67 68 4.0 7.0 0.00 0.00 0.00 93 1015.4
20260905110517 67 68 4.0 7.0 0.00 0.00 0.00 93 1015.3
20260905105517 67 90 4.0 8.0 0.00 0.00 0.00 93 1015.3
20260905104517 67 68 4.0 8.0 0.00 0.00 0.00 93 1015.2
20260905103517 67 0 3.0 7.0 0.00 0.00 0.00 93 1015.5
20260905102517 66 0 3.0 7.0 0.00 0.00 0.00 93 1015.1
20260905101517 66 0 2.0 4.0 0.00 0.00 0.00 93 1015.2
20260905100537 66 0 1.0 3.0 0.00 0.00 0.00 92 1015.3
20260905095537 66 0 2.0 3.0 0.00 0.00 0.00 92 1015.2
20260905094517 66 0 1.0 3.0 0.00 0.00 0.00 92 1015.2
20260905093517 66 0 1.0 3.0 0.00 0.00 0.00 92 1014.9
20260905092537 66 0 2.0 3.0 0.00 0.00 0.00 92 1014.7
20260905091517 66 0 2.0 4.0 0.00 0.00 0.00 92 1014.3
20260905090537 66 0 2.0 4.0 0.00 0.00 0.00 92 1014.4
20260905085517 66 135 2.0 4.0 0.00 0.00 0.00 91 1014.6
20260905084517 66 0 1.0 3.0 0.00 0.00 0.00 91 1014.8
20260905083516 67 0 1.0 2.0 0.00 0.00 0.00 91 1014.8
20260905082517 67 0 2.0 4.0 0.00 0.00 0.00 91 1014.8